TimePDT,TemperatureF,Dew PointF,Humidity,Sea Level PressureIn,VisibilityMPH,Wind Direction,Wind SpeedMPH,Gust SpeedMPH,PrecipitationIn,Events,Conditions,WindDirDegrees,DateUTC
12:53 AM,45.0,39.9,82,30.06,10.0,Calm,Calm,-,N/A,,Clear,0,2013-03-18 07:53:00
1:53 AM,43.0,39.0,86,30.06,9.0,Calm,Calm,-,N/A,,Clear,0,2013-03-18 08:53:00
2:53 AM,42.1,39.9,92,30.06,8.0,Calm,Calm,-,N/A,,Clear,0,2013-03-18 09:53:00
4:53 AM,39.0,37.0,93,30.04,8.0,West,3.5,-,N/A,,Clear,280,2013-03-18 11:53:00
5:53 AM,39.0,37.0,93,30.04,9.0,Calm,Calm,-,N/A,,Clear,0,2013-03-18 12:53:00
6:53 AM,39.0,37.0,93,30.05,10.0,Calm,Calm,-,N/A,,Partly Cloudy,0,2013-03-18 13:53:00
7:22 AM,39.2,37.4,93,30.07,1.5,Calm,Calm,-,N/A,,Clear,0,2013-03-18 14:22:00
7:28 AM,37.4,35.6,93,30.07,0.8,Calm,Calm,-,N/A,,Mist,0,2013-03-18 14:28:00
7:36 AM,37.4,35.6,93,30.08,1.2,Calm,Calm,-,N/A,,Partly Cloudy,0,2013-03-18 14:36:00
7:43 AM,37.4,35.6,93,30.08,3.0,Calm,Calm,-,N/A,,Partly Cloudy,0,2013-03-18 14:43:00
7:53 AM,39.9,37.9,93,30.07,10.0,Calm,Calm,-,N/A,,Mostly Cloudy,0,2013-03-18 14:53:00
8:53 AM,44.1,41.0,89,30.08,10.0,Calm,Calm,-,N/A,,Mostly Cloudy,0,2013-03-18 15:53:00
9:53 AM,50.0,42.1,74,30.09,10.0,Calm,Calm,-,N/A,,Mostly Cloudy,0,2013-03-18 16:53:00
10:53 AM,54.0,42.1,64,30.09,10.0,Calm,Calm,-,N/A,,Mostly Cloudy,0,2013-03-18 17:53:00
11:53 AM,60.1,42.1,51,30.08,10.0,Variable,4.6,-,N/A,,Mostly Cloudy,0,2013-03-18 18:53:00
12:53 PM,63.0,42.1,46,30.07,10.0,SE,3.5,-,N/A,,Mostly Cloudy,140,2013-03-18 19:53:00
1:53 PM,66.0,41.0,40,30.04,10.0,SSE,4.6,-,N/A,,Overcast,160,2013-03-18 20:53:00
2:53 PM,66.0,42.1,42,30.02,10.0,Calm,Calm,-,N/A,,Mostly Cloudy,0,2013-03-18 21:53:00
3:53 PM,64.0,44.1,48,30.02,10.0,South,9.2,-,N/A,,Overcast,180,2013-03-18 22:53:00
4:53 PM,64.0,44.1,48,30.01,10.0,SSE,5.8,-,N/A,,Clear,160,2013-03-18 23:53:00
5:53 PM,63.0,39.9,43,29.99,10.0,SSE,5.8,-,N/A,,Overcast,150,2013-03-19 00:53:00
6:53 PM,60.1,44.1,55,30.01,10.0,SE,6.9,-,N/A,,Overcast,140,2013-03-19 01:53:00
7:53 PM,55.9,45.0,67,30.03,10.0,SSE,5.8,-,N/A,,Partly Cloudy,160,2013-03-19 02:53:00
9:53 PM,51.1,44.1,77,30.08,10.0,SE,3.5,-,N/A,,Overcast,130,2013-03-19 04:53:00
10:53 PM,50.0,44.1,80,30.10,10.0,Calm,Calm,-,N/A,,Overcast,0,2013-03-19 05:53:00
11:53 PM,48.0,43.0,83,30.07,10.0,West,3.5,-,N/A,,Partly Cloudy,260,2013-03-19 06:53:00